Location: Unspecified
(54.1780°N, 0.0000°E)
Time: 11:28:39
(UTC+00:00)

Vanguard 2 - Pass Details

Date: 20 June 2019
Orbit: 553 x 2938 km, 32.9° (Epoch: 17 August)

Event Time Altitude Azimuth Distance (km) Brightness Sun altitude
Rises 13:38:17 0° 252° (WSW) 4,729 12.0 54.3°
Reaches altitude 10° 13:42:45 10° 233° (SW) 4,182 12.1 53.9°
Maximum altitude 13:49:09 17° 199° (SSW) 4,208 12.2 53.3°
Drops below altitude 10° 13:56:57 10° 168° (SSE) 5,263 12.2 52.5°
Sets 14:03:56 0° 151° (SSE) 6,599 12.4 51.7°
